This is the latest recevied weather packets stored in our database for station/object W0AKY-13. If no packets are shown the sender has not sent any weather packets the latest 10 day(s).
| Time | Temp. | Humidity | Pressure | Rain* | Wind** | Luminosity | Snow |
|---|---|---|---|---|---|---|---|
| 1777651769 | 12.78° C | 48% | 1019.8 hPa | 0 mm | - | 566 W/m² | - |
| 1777651466 | 13.33° C | 48% | 1019.5 hPa | 0 mm | - | 519 W/m² | - |
| 1777651163 | 12.78° C | 53% | 1019.6 hPa | 0 mm | - | 539 W/m² | - |
| 1777650860 | 12.78° C | 49% | 1019.6 hPa | 0 mm | - | 523 W/m² | - |
| 1777650556 | 12.78° C | 51% | 1019.4 hPa | 0 mm | - | 519 W/m² | - |
| 1777650254 | 12.22° C | 51% | 1019.6 hPa | 0 mm | - | 505 W/m² | - |
| 1777649951 | 12.22° C | 49% | 1019.7 hPa | 0 mm | - | 491 W/m² | - |
| 1777649649 | 12.22° C | 50% | 1019.6 hPa | 0 mm | - | 478 W/m² | - |
| 1777649344 | 12.78° C | 54% | 1019.6 hPa | 0 mm | - | 465 W/m² | - |
| 1777649042 | 12.22° C | 55% | 1019.7 hPa | 0 mm | - | 451 W/m² | - |
| 1777648739 | 11.67° C | 56% | 1019.7 hPa | 0 mm | - | 438 W/m² | - |
| 1777648435 | 11.67° C | 56% | 1019.5 hPa | 0 mm | - | 424 W/m² | - |
| 1777648131 | 11.67° C | 57% | 1019.7 hPa | 0 mm | - | 410 W/m² | - |
| 1777647827 | 11.67° C | 59% | 1019.5 hPa | 0 mm | - | 397 W/m² | - |
| 1777647524 | 11.11° C | 58% | 1019.6 hPa | 0 mm | - | 385 W/m² | - |
| 1777647221 | 11.11° C | 59% | 1019.8 hPa | 0 mm | - | 370 W/m² | - |
| 1777646918 | 11.11° C | 59% | 1019.6 hPa | 0 mm | - | 358 W/m² | - |
| 1777646614 | 10.56° C | 61% | 1019.7 hPa | 0 mm | - | 345 W/m² | - |
| 1777646310 | 10.56° C | 59% | 1019.8 hPa | 0 mm | - | 331 W/m² | - |
| 1777646007 | 10.56° C | 61% | 1019.6 hPa | 0 mm | - | 313 W/m² | - |
| 1777645704 | 10.56° C | 61% | 1019.7 hPa | 0 mm | - | 305 W/m² | - |
| 1777645400 | 10° C | 62% | 1019.7 hPa | 0 mm | - | 109 W/m² | - |
| 1777645096 | 10° C | 63% | 1019.8 hPa | 0 mm | - | 36 W/m² | - |
| 1777644793 | 9.44° C | 64% | 1019.8 hPa | 0 mm | - | 34 W/m² | - |
| 1777644491 | 9.44° C | 65% | 1019.6 hPa | 0 mm | - | 33 W/m² | - |
* Rain latest hour (hover to see other rain measurements)
** Current wind speed in m/s (hover to see current wind gust speed)